QPF
0.01 0.01 0.00 0.00 0.00 0.00 0.00 0.00 0.00 0.00 0.00 0.00 0.00 0.00 0.00 0.00 0.00 0.00 0.00 0.00 0.00 0.00 0.00 0.00 0.00 0.00 0.00 0.00 0.00 0.00 0.00 0.00 0.00 0.00 0.00 0.00 0.00 0.00 0.00 0.00 0.00 0.00 0.00 0.00
0.00 0.01 0.00 0.00 0.00 0.00 0.00 0.00 0.00 0.00 0.00 0.00 0.00 0.00 0.00 0.00 0.00 0.00 0.00 0.00 0.00 0.00 0.00 0.00 0.00 0.00 0.00 0.00 0.00 0.00 0.00 0.00 0.00 0.00 0.00 0.00 0.00 0.00 0.00 0.00 0.00 0.00 0.00 0.00
0.00 0.00 0.00 0.00 0.00 0.00 0.00 0.00 0.00 0.00 0.00 0.00 0.00 0.00 0.00 0.00 0.00 0.00 0.00 0.00 0.00 0.00 0.00 0.00 0.00 0.00 0.00 0.00 0.00 0.00 0.00 0.00 0.00 0.00 0.00 0.00 0.00 0.00 0.00 0.00 0.00 0.00 0.00 0.00
0.00 0.00 0.00 0.00 0.00 0.00 0.00 0.00 0.00 0.00 0.00 0.00 0.00 0.00 0.00 0.00 0.00 0.00 0.00 0.00 0.00 0.00 0.00 0.00 0.00 0.00 0.00 0.00 0.00 0.00 0.00 0.00 0.00 0.00 0.00 0.00 0.00 0.00 0.00 0.00 0.00 0.00 0.00 0.00
0.00 0.00 0.00 0.00 0.00 0.00 0.00 0.00 0.00 0.00 0.00 0.00 0.00 0.00 0.00 0.00 0.00 0.00 0.00 0.00 0.00 0.00 0.00 0.00 0.00 0.00 0.00 0.00 0.00 0.00 0.00 0.00 0.00 0.00 0.00 0.00 0.00 0.00 0.00 0.00 0.00 0.00 0.00 0.00
0.01 0.01 0.00 0.00 0.00 0.00 0.00 0.00 0.00 0.00 0.00 0.00 0.00 0.00 0.00 0.00 0.00 0.00 0.00 0.00 0.00 0.00 0.00 0.00 0.00 0.00 0.00 0.00 0.00 0.00 0.00 0.00 0.00 0.00 0.00 0.00 0.00 0.00 0.00 0.01 0.01 0.01 0.01 0.01
0.02 0.02 0.01 0.01 0.00 0.00 0.00 0.00 0.00 0.00 0.00 0.00 0.00 0.00 0.00 0.00 0.00 0.00 0.00 0.00 0.00 0.00 0.00 0.00 0.00 0.00 0.00 0.00 0.00 0.00 0.00 0.00 0.00 0.00 0.00 0.00 0.00 0.00 0.01 0.01 0.01 0.01 0.00 0.01
0.03 0.02 0.01 0.00 0.00 0.00 0.00 0.00 0.00 0.00 0.00 0.00 0.00 0.00 0.00 0.00 0.00 0.00 0.00 0.00 0.00 0.00 0.00 0.00 0.00 0.00 0.00 0.00 0.00 0.00 0.00 0.00 0.00 0.00 0.00 0.00 0.00 0.00 0.01 0.01 0.00 0.00 0.00 0.01
0.01 0.00 0.00 0.00 0.00 0.00 0.00 0.00 0.00 0.00 0.00 0.00 0.00 0.00 0.00 0.00 0.00 0.00 0.00 0.00 0.00 0.00 0.00 0.00 0.00 0.00 0.00 0.00 0.00 0.00 0.00 0.00 0.00 0.00 0.00 0.00 0.00 0.01 0.01 0.00 0.00 0.01 0.01 0.01
0.00 0.00 0.00 0.00 0.00 0.00 0.00 0.00 0.00 0.00 0.00 0.00 0.00 0.00 0.00 0.00 0.00 0.00 0.00 0.00 0.00 0.00 0.00 0.00 0.00 0.00 0.00 0.00 0.00 0.00 0.00 0.00 0.00 0.00 0.00 0.00 0.00 0.00 0.00 0.00 0.01 0.01 0.01 0.01
0.00 0.00 0.00 0.00 0.00 0.00 0.00 0.00 0.00 0.00 0.00 0.00 0.00 0.00 0.00 0.00 0.00 0.00 0.00 0.00 0.00 0.00 0.00 0.00 0.00 0.00 0.00 0.00 0.00 0.00 0.00 0.00 0.00 0.00 0.00 0.00 0.00 0.00 0.00 0.00 0.01 0.01 0.01 0.01
0.00 0.00 0.00 0.00 0.00 0.00 0.00 0.00 0.00 0.00 0.00 0.00 0.00 0.00 0.00 0.00 0.00 0.00 0.00 0.00 0.00 0.00 0.00 0.00 0.00 0.00 0.00 0.00 0.00 0.00 0.00 0.00 0.00 0.00 0.00 0.00 0.00 0.00 0.00 0.00 0.00 0.00 0.00 0.01
0.00 0.00 0.00 0.00 0.00 0.00 0.00 0.00 0.00 0.00 0.00 0.00 0.00 0.00 0.00 0.00 0.00 0.00 0.00 0.00 0.00 0.00 0.00 0.00 0.00 0.00 0.00 0.00 0.00 0.00 0.00 0.00 0.00 0.00 0.00 0.00 0.01 0.01 0.00 0.00 0.00 0.00 0.00 0.00
0.00 0.00 0.00 0.00 0.00 0.00 0.00 0.00 0.00 0.00 0.00 0.00 0.00 0.00 0.00 0.00 0.00 0.00 0.00 0.00 0.00 0.00 0.00 0.00 0.00 0.00 0.00 0.00 0.00 0.00 0.00 0.00 0.00 0.00 0.00 0.00 0.00 0.00 0.00 0.01 0.00 0.00 0.00 0.00
0.00 0.00 0.00 0.00 0.00 0.00 0.00 0.00 0.00 0.00 0.00 0.00 0.00 0.00 0.00 0.00 0.00 0.00 0.00 0.00 0.00 0.00 0.00 0.00 0.00 0.00 0.00 0.00 0.00 0.00 0.00 0.00 0.00 0.00 0.00 0.00 0.00 0.00 0.00 0.00 0.00 0.00 0.00 0.01
0.01 0.01 0.01 0.01 0.01 0.01 0.01 0.01 0.01 0.01 0.00 0.00 0.00 0.00 0.00 0.00 0.00 0.00 0.00 0.00 0.00 0.00 0.00 0.00 0.00 0.00 0.00 0.00 0.00 0.00 0.00 0.00 0.00 0.00 0.00 0.00 0.00 0.00 0.00 0.00 0.00 0.00 0.01 0.01
0.03 0.03 0.03 0.03 0.02 0.02 0.01 0.01 0.01 0.01 0.01 0.01 0.00 0.00 0.00 0.00 0.00 0.00 0.00 0.00 0.00 0.00 0.00 0.00 0.00 0.00 0.00 0.00 0.00 0.00 0.00 0.00 0.00 0.00 0.00 0.00 0.00 0.00 0.00 0.00 0.00 0.00 0.01 0.01
0.04 0.05 0.05 0.04 0.03 0.03 0.02 0.02 0.01 0.01 0.01 0.01 0.01 0.00 0.00 0.00 0.00 0.00 0.00 0.00 0.00 0.00 0.00 0.00 0.00 0.00 0.00 0.00 0.00 0.00 0.00 0.00 0.00 0.00 0.00 0.00 0.00 0.00 0.00 0.00 0.00 0.00 0.01 0.01
0.04 0.04 0.04 0.04 0.03 0.03 0.03 0.03 0.02 0.02 0.02 0.01 0.01 0.01 0.00 0.00 0.00 0.00 0.00 0.00 0.00 0.00 0.00 0.00 0.00 0.00 0.00 0.00 0.00 0.00 0.00 0.00 0.00 0.00 0.00 0.00 0.00 0.00 0.00 0.00 0.00 0.00 0.01 0.01
0.03 0.03 0.03 0.03 0.03 0.04 0.04 0.03 0.03 0.02 0.02 0.02 0.01 0.01 0.01 0.00 0.00 0.00 0.00 0.00 0.00 0.00 0.00 0.00 0.00 0.00 0.00 0.00 0.00 0.00 0.00 0.00 0.00 0.00 0.00 0.00 0.00 0.00 0.00 0.00 0.01 0.01 0.01 0.01
0.03 0.04 0.04 0.05 0.04 0.04 0.03 0.03 0.03 0.03 0.02 0.01 0.01 0.01 0.01 0.00 0.00 0.00 0.00 0.00 0.00 0.00 0.01 0.01 0.01 0.01 0.00 0.00 0.00 0.00 0.00 0.00 0.00 0.00 0.00 0.00 0.00 0.00 0.00 0.00 0.01 0.01 0.02 0.02
0.04 0.04 0.04 0.04 0.03 0.03 0.02 0.02 0.02 0.01 0.01 0.01 0.01 0.00 0.00 0.00 0.00 0.00 0.00 0.01 0.01 0.01 0.00 0.00 0.00 0.00 0.00 0.00 0.00 0.00 0.00 0.00 0.00 0.00 0.00 0.00 0.00 0.00 0.00 0.00 0.01 0.01 0.01 0.01
0.02 0.01 0.01 0.01 0.01 0.01 0.01 0.01 0.01 0.00 0.00 0.00 0.00 0.00 0.00 0.00 0.00 0.00 0.01 0.01 0.01 0.00 0.00 0.00 0.00 0.00 0.00 0.00 0.00 0.00 0.00 0.00 0.00 0.00 0.00 0.00 0.00 0.00 0.00 0.00 0.00 0.01 0.01 0.01
0.01 0.01 0.01 0.01 0.01 0.00 0.00 0.00 0.00 0.00 0.00 0.00 0.00 0.00 0.00 0.00 0.00 0.00 0.00 0.01 0.01 0.01 0.01 0.01 0.00 0.00 0.00 0.00 0.00 0.00 0.00 0.00 0.00 0.00 0.00 0.00 0.00 0.00 0.00 0.00 0.00 0.01 0.01 0.01
0.01 0.01 0.00 0.00 0.00 0.00 0.00 0.00 0.00 0.00 0.00 0.00 0.00 0.00 0.00 0.00 0.00 0.00 0.01 0.01 0.01 0.02 0.02 0.01 0.01 0.01 0.01 0.01 0.00 0.00 0.00 0.00 0.00 0.00 0.00 0.00 0.00 0.00 0.00 0.00 0.00 0.01 0.01 0.00
0.00 0.00 0.00 0.00 0.00 0.00 0.00 0.00 0.00 0.00 0.00 0.00 0.00 0.00 0.00 0.00 0.01 0.01 0.01 0.02 0.02 0.02 0.02 0.02 0.01 0.01 0.01 0.01 0.00 0.00 0.00 0.00 0.00 0.00 0.00 0.01 0.01 0.01 0.01 0.01 0.01 0.01 0.01 0.00
0.00 0.00 0.00 0.00 0.00 0.00 0.00 0.00 0.00 0.00 0.00 0.00 0.00 0.00 0.00 0.00 0.01 0.01 0.02 0.03 0.04 0.04 0.03 0.02 0.02 0.03 0.03 0.02 0.01 0.01 0.00 0.00 0.00 0.00 0.00 0.00 0.00 0.00 0.01 0.01 0.01 0.01 0.01 0.01
MSLP
1014.37 1014.72 1015.10 1015.50 1015.90 1016.26 1016.54 1016.71 1016.76 1016.68 1016.50 1016.25 1015.98 1015.74 1015.57 1015.49 1015.51 1015.61 1015.78 1015.98 1016.16 1016.30 1016.38 1016.39 1016.33 1016.21 1016.03 1015.81 1015.56 1015.28 1014.97 1014.63 1014.26 1013.86 1013.44 1013.02 1012.61 1012.21 1011.85 1011.52 1011.22 1010.94 1010.68 1010.43
1014.52 1014.81 1015.07 1015.31 1015.51 1015.68 1015.79 1015.85 1015.84 1015.79 1015.69 1015.58 1015.49 1015.42 1015.41 1015.46 1015.56 1015.69 1015.85 1016.00 1016.12 1016.19 1016.22 1016.19 1016.11 1015.99 1015.83 1015.63 1015.40 1015.13 1014.82 1014.47 1014.07 1013.65 1013.20 1012.75 1012.30 1011.88 1011.48 1011.12 1010.79 1010.48 1010.19 1009.90
1014.75 1014.95 1015.08 1015.15 1015.17 1015.17 1015.14 1015.10 1015.05 1015.02 1015.00 1015.02 1015.07 1015.15 1015.28 1015.42 1015.58 1015.73 1015.86 1015.96 1016.02 1016.04 1016.01 1015.95 1015.85 1015.73 1015.58 1015.40 1015.19 1014.93 1014.63 1014.28 1013.89 1013.45 1013.00 1012.54 1012.08 1011.64 1011.23 1010.84 1010.48 1010.14 1009.81 1009.48
1015.03 1015.10 1015.08 1014.99 1014.86 1014.71 1014.57 1014.46 1014.39 1014.39 1014.44 1014.56 1014.73 1014.93 1015.14 1015.36 1015.55 1015.71 1015.82 1015.87 1015.88 1015.85 1015.78 1015.69 1015.58 1015.46 1015.32 1015.15 1014.95 1014.71 1014.41 1014.07 1013.68 1013.26 1012.81 1012.36 1011.91 1011.48 1011.07 1010.67 1010.29 1009.91 1009.54 1009.17
1015.25 1015.17 1015.00 1014.77 1014.51 1014.25 1014.04 1013.90 1013.84 1013.87 1013.99 1014.19 1014.44 1014.72 1015.00 1015.25 1015.46 1015.61 1015.70 1015.72 1015.70 1015.64 1015.55 1015.44 1015.33 1015.21 1015.07 1014.91 1014.71 1014.47 1014.18 1013.84 1013.46 1013.05 1012.62 1012.19 1011.76 1011.34 1010.94 1010.55 1010.15 1009.76 1009.35 1008.94
1015.27 1015.04 1014.73 1014.38 1014.04 1013.73 1013.49 1013.36 1013.33 1013.42 1013.60 1013.87 1014.18 1014.51 1014.82 1015.09 1015.30 1015.44 1015.51 1015.51 1015.47 1015.40 1015.31 1015.20 1015.10 1014.98 1014.85 1014.68 1014.48 1014.23 1013.93 1013.59 1013.20 1012.80 1012.39 1011.97 1011.57 1011.18 1010.80 1010.42 1010.03 1009.63 1009.21 1008.77
1014.98 1014.61 1014.19 1013.77 1013.38 1013.08 1012.87 1012.79 1012.83 1012.98 1013.24 1013.56 1013.92 1014.27 1014.60 1014.86 1015.06 1015.18 1015.24 1015.24 1015.20 1015.14 1015.06 1014.98 1014.89 1014.78 1014.65 1014.48 1014.26 1013.99 1013.67 1013.31 1012.91 1012.50 1012.09 1011.70 1011.32 1010.96 1010.61 1010.25 1009.88 1009.49 1009.06 1008.62
1014.32 1013.83 1013.34 1012.90 1012.53 1012.27 1012.15 1012.15 1012.29 1012.54 1012.87 1013.24 1013.63 1014.00 1014.31 1014.57 1014.74 1014.85 1014.90 1014.91 1014.89 1014.85 1014.80 1014.75 1014.68 1014.59 1014.47 1014.29 1014.05 1013.75 1013.40 1013.00 1012.58 1012.16 1011.75 1011.36 1011.00 1010.66 1010.34 1010.01 1009.67 1009.31 1008.90 1008.47
1013.31 1012.74 1012.23 1011.80 1011.50 1011.34 1011.33 1011.46 1011.72 1012.06 1012.47 1012.90 1013.31 1013.68 1013.98 1014.21 1014.36 1014.46 1014.51 1014.53 1014.53 1014.53 1014.52 1014.51 1014.48 1014.41 1014.28 1014.10 1013.83 1013.50 1013.11 1012.68 1012.23 1011.79 1011.36 1010.97 1010.62 1010.30 1010.00 1009.71 1009.41 1009.08 1008.72 1008.32
1012.05 1011.45 1010.95 1010.57 1010.36 1010.33 1010.45 1010.72 1011.10 1011.56 1012.04 1012.51 1012.94 1013.31 1013.59 1013.80 1013.93 1014.02 1014.07 1014.11 1014.14 1014.18 1014.22 1014.25 1014.25 1014.20 1014.08 1013.88 1013.60 1013.24 1012.82 1012.36 1011.88 1011.40 1010.96 1010.57 1010.22 1009.91 1009.64 1009.38 1009.12 1008.84 1008.52 1008.18
1010.71 1010.10 1009.63 1009.33 1009.23 1009.32 1009.58 1009.98 1010.47 1011.02 1011.57 1012.08 1012.53 1012.88 1013.15 1013.34 1013.47 1013.55 1013.61 1013.66 1013.73 1013.81 1013.89 1013.95 1013.98 1013.95 1013.85 1013.65 1013.35 1012.97 1012.53 1012.04 1011.53 1011.04 1010.58 1010.18 1009.83 1009.54 1009.29 1009.05 1008.83 1008.59 1008.33 1008.04
1009.46 1008.86 1008.44 1008.21 1008.20 1008.39 1008.76 1009.26 1009.84 1010.46 1011.06 1011.60 1012.05 1012.41 1012.67 1012.85 1012.97 1013.06 1013.13 1013.21 1013.31 1013.42 1013.54 1013.63 1013.69 1013.67 1013.58 1013.38 1013.08 1012.69 1012.24 1011.73 1011.22 1010.72 1010.26 1009.85 1009.51 1009.22 1008.97 1008.76 1008.56 1008.36 1008.14 1007.90
1008.45 1007.87 1007.48 1007.30 1007.35 1007.61 1008.04 1008.61 1009.24 1009.89 1010.52 1011.07 1011.53 1011.89 1012.15 1012.34 1012.47 1012.57 1012.66 1012.77 1012.89 1013.03 1013.17 1013.29 1013.36 1013.36 1013.27 1013.08 1012.79 1012.40 1011.95 1011.46 1010.95 1010.46 1010.00 1009.60 1009.25 1008.96 1008.72 1008.51 1008.32 1008.14 1007.95 1007.75
1007.79 1007.22 1006.84 1006.67 1006.74 1007.02 1007.47 1008.04 1008.68 1009.34 1009.96 1010.52 1010.98 1011.34 1011.61 1011.81 1011.96 1012.08 1012.20 1012.34 1012.48 1012.64 1012.80 1012.93 1013.01 1013.01 1012.93 1012.75 1012.48 1012.11 1011.69 1011.22 1010.73 1010.25 1009.81 1009.41 1009.07 1008.78 1008.53 1008.32 1008.12 1007.94 1007.75 1007.57
1007.50 1006.91 1006.52 1006.34 1006.38 1006.63 1007.05 1007.58 1008.19 1008.82 1009.41 1009.95 1010.41 1010.77 1011.06 1011.28 1011.46 1011.61 1011.76 1011.92 1012.09 1012.26 1012.42 1012.55 1012.63 1012.65 1012.57 1012.41 1012.15 1011.82 1011.43 1010.99 1010.55 1010.10 1009.68 1009.30 1008.96 1008.66 1008.39 1008.16 1007.95 1007.74 1007.55 1007.35
1007.54 1006.94 1006.51 1006.29 1006.27 1006.45 1006.79 1007.26 1007.79 1008.36 1008.91 1009.42 1009.86 1010.23 1010.53 1010.77 1010.98 1011.16 1011.34 1011.52 1011.70 1011.87 1012.03 1012.16 1012.24 1012.26 1012.19 1012.05 1011.82 1011.53 1011.18 1010.80 1010.39 1009.99 1009.60 1009.23 1008.89 1008.58 1008.30 1008.04 1007.79 1007.56 1007.33 1007.10
1007.85 1007.23 1006.76 1006.47 1006.38 1006.46 1006.71 1007.07 1007.52 1008.00 1008.49 1008.95 1009.36 1009.72 1010.03 1010.29 1010.52 1010.72 1010.92 1011.11 1011.29 1011.47 1011.62 1011.75 1011.82 1011.84 1011.79 1011.67 1011.48 1011.24 1010.94 1010.61 1010.26 1009.90 1009.54 1009.19 1008.86 1008.54 1008.24 1007.95 1007.66 1007.39 1007.12 1006.86
1008.32 1007.68 1007.18 1006.83 1006.65 1006.65 1006.78 1007.04 1007.38 1007.77 1008.18 1008.58 1008.95 1009.29 1009.58 1009.84 1010.07 1010.28 1010.48 1010.67 1010.85 1011.02 1011.17 1011.28 1011.36 1011.39 1011.36 1011.28 1011.14 1010.94 1010.71 1010.44 1010.15 1009.83 1009.51 1009.19 1008.86 1008.54 1008.22 1007.90 1007.58 1007.27 1006.97 1006.68
1008.86 1008.23 1007.70 1007.30 1007.06 1006.96 1007.00 1007.15 1007.39 1007.68 1008.00 1008.32 1008.63 1008.92 1009.18 1009.41 1009.62 1009.82 1010.00 1010.18 1010.34 1010.50 1010.64 1010.75 1010.84 1010.89 1010.90 1010.86 1010.78 1010.65 1010.48 1010.28 1010.05 1009.79 1009.51 1009.21 1008.90 1008.58 1008.25 1007.91 1007.58 1007.24 1006.92 1006.60
1009.39 1008.77 1008.24 1007.82 1007.53 1007.36 1007.32 1007.38 1007.51 1007.70 1007.92 1008.16 1008.39 1008.60 1008.80 1008.98 1009.14 1009.29 1009.44 1009.59 1009.73 1009.88 1010.01 1010.14 1010.25 1010.34 1010.40 1010.43 1010.41 1010.36 1010.27 1010.14 1009.97 1009.76 1009.52 1009.26 1008.97 1008.65 1008.33 1007.99 1007.65 1007.32 1006.98 1006.66
1009.85 1009.26 1008.74 1008.32 1008.00 1007.79 1007.68 1007.66 1007.70 1007.79 1007.91 1008.04 1008.17 1008.29 1008.40 1008.50 1008.59 1008.68 1008.78 1008.89 1009.01 1009.15 1009.29 1009.44 1009.60 1009.74 1009.87 1009.97 1010.04 1010.07 1010.06 1010.00 1009.89 1009.75 1009.55 1009.32 1009.06 1008.77 1008.46 1008.14 1007.82 1007.49 1007.17 1006.86
1010.20 1009.65 1009.16 1008.75 1008.43 1008.19 1008.03 1007.94 1007.90 1007.89 1007.91 1007.93 1007.95 1007.95 1007.96 1007.96 1007.96 1007.98 1008.02 1008.08 1008.18 1008.32 1008.48 1008.67 1008.88 1009.09 1009.30 1009.49 1009.65 1009.77 1009.84 1009.86 1009.83 1009.73 1009.59 1009.40 1009.17 1008.91 1008.63 1008.34 1008.05 1007.75 1007.47 1007.18
1010.43 1009.92 1009.47 1009.08 1008.75 1008.50 1008.31 1008.16 1008.05 1007.95 1007.86 1007.77 1007.67 1007.56 1007.45 1007.34 1007.25 1007.19 1007.17 1007.20 1007.28 1007.42 1007.61 1007.85 1008.13 1008.42 1008.72 1009.00 1009.26 1009.47 1009.62 1009.72 1009.75 1009.71 1009.61 1009.46 1009.26 1009.04 1008.80 1008.55 1008.30 1008.05 1007.80 1007.56
1010.54 1010.07 1009.65 1009.28 1008.96 1008.70 1008.48 1008.29 1008.11 1007.93 1007.75 1007.55 1007.34 1007.11 1006.89 1006.68 1006.50 1006.37 1006.29 1006.29 1006.37 1006.52 1006.75 1007.04 1007.39 1007.76 1008.15 1008.53 1008.87 1009.17 1009.40 1009.56 1009.64 1009.66 1009.60 1009.49 1009.33 1009.15 1008.95 1008.74 1008.53 1008.33 1008.13 1007.94
1010.54 1010.10 1009.70 1009.35 1009.04 1008.78 1008.53 1008.30 1008.07 1007.82 1007.56 1007.27 1006.96 1006.64 1006.32 1006.03 1005.78 1005.58 1005.46 1005.44 1005.51 1005.68 1005.95 1006.30 1006.71 1007.16 1007.62 1008.08 1008.50 1008.87 1009.17 1009.38 1009.52 1009.57 1009.56 1009.48 1009.36 1009.22 1009.05 1008.89 1008.72 1008.57 1008.42 1008.27
1010.45 1010.02 1009.65 1009.31 1009.01 1008.74 1008.48 1008.23 1007.95 1007.65 1007.32 1006.97 1006.58 1006.19 1005.80 1005.44 1005.14 1004.90 1004.75 1004.72 1004.79 1004.99 1005.29 1005.68 1006.14 1006.65 1007.18 1007.69 1008.17 1008.60 1008.94 1009.21 1009.38 1009.48 1009.49 1009.45 1009.36 1009.25 1009.13 1009.00 1008.87 1008.76 1008.65 1008.53
1010.28 1009.88 1009.51 1009.19 1008.90 1008.63 1008.37 1008.09 1007.79 1007.46 1007.09 1006.69 1006.26 1005.82 1005.39 1005.00 1004.66 1004.40 1004.24 1004.20 1004.28 1004.49 1004.81 1005.23 1005.73 1006.27 1006.84 1007.40 1007.91 1008.37 1008.75 1009.05 1009.26 1009.38 1009.43 1009.42 1009.36 1009.28 1009.19 1009.10 1009.01 1008.92 1008.84 1008.75
Thickness
5723 5728 5728 5728 5727 5719 5712 5702 5692 5697 5696 5705 5706 5705 5702 5697 5692 5687 5682 5677 5672 5665 5659 5653 5648 5643 5638 5633 5627 5621 5615 5610 5605 5600 5595 5590 5586 5582 5578 5575 5573 5570 5567 5566
5724 5729 5729 5726 5728 5723 5718 5711 5706 5704 5701 5711 5709 5703 5698 5693 5688 5682 5678 5673 5668 5662 5656 5650 5645 5639 5633 5627 5622 5616 5609 5604 5599 5594 5589 5584 5579 5575 5571 5567 5565 5562 5559 5558
5708 5718 5723 5711 5724 5723 5720 5717 5709 5701 5707 5710 5705 5700 5696 5690 5685 5680 5675 5670 5665 5659 5653 5647 5641 5635 5628 5623 5617 5610 5604 5599 5594 5588 5583 5578 5574 5569 5565 5561 5557 5554 5552 5550
5699 5709 5697 5714 5731 5730 5722 5720 5717 5715 5712 5708 5705 5701 5696 5690 5684 5678 5674 5669 5663 5657 5651 5645 5638 5631 5624 5618 5611 5605 5599 5594 5589 5583 5577 5572 5567 5562 5558 5554 5550 5547 5545 5543
5690 5694 5701 5719 5729 5725 5718 5716 5721 5715 5712 5706 5700 5695 5691 5691 5685 5680 5674 5668 5662 5656 5648 5641 5634 5628 5620 5613 5607 5600 5595 5589 5583 5577 5572 5567 5562 5557 5553 5548 5544 5541 5539 5536
5691 5695 5693 5716 5735 5734 5723 5709 5722 5716 5708 5699 5693 5680 5684 5692 5686 5679 5673 5667 5660 5653 5645 5638 5632 5624 5616 5609 5602 5596 5591 5585 5579 5573 5567 5562 5557 5553 5548 5543 5539 5536 5534 5531
5693 5694 5703 5730 5736 5730 5704 5707 5728 5718 5709 5698 5692 5691 5692 5691 5685 5679 5672 5666 5659 5650 5642 5636 5629 5620 5612 5605 5599 5593 5587 5581 5575 5569 5563 5559 5554 5549 5544 5540 5535 5532 5529 5527
5690 5692 5702 5737 5729 5721 5722 5733 5728 5720 5711 5702 5698 5696 5691 5686 5681 5675 5668 5663 5656 5647 5640 5633 5625 5617 5610 5603 5598 5590 5584 5577 5572 5566 5561 5558 5551 5547 5542 5536 5532 5529 5525 5523
5708 5716 5733 5737 5737 5741 5736 5731 5727 5720 5713 5706 5698 5693 5688 5683 5677 5672 5666 5659 5652 5644 5637 5631 5623 5614 5607 5602 5595 5587 5581 5575 5569 5564 5559 5554 5548 5544 5539 5534 5529 5526 5523 5520
5713 5726 5735 5738 5739 5739 5736 5733 5729 5723 5716 5707 5699 5693 5687 5680 5674 5668 5663 5656 5649 5641 5634 5628 5621 5613 5606 5599 5592 5585 5578 5573 5568 5563 5558 5553 5548 5542 5538 5533 5529 5525 5521 5519
5715 5726 5734 5741 5740 5739 5736 5733 5727 5721 5715 5708 5700 5693 5686 5679 5673 5667 5660 5654 5646 5639 5632 5626 5620 5612 5605 5598 5590 5583 5577 5571 5566 5561 5556 5552 5548 5543 5538 5534 5527 5523 5521 5517
5715 5730 5727 5734 5742 5739 5733 5729 5725 5718 5711 5706 5700 5693 5686 5678 5672 5665 5658 5651 5644 5637 5630 5624 5617 5610 5604 5596 5588 5581 5575 5570 5565 5560 5556 5551 5546 5544 5541 5535 5530 5525 5520 5515
5730 5736 5733 5737 5739 5737 5733 5729 5724 5718 5712 5704 5698 5692 5685 5677 5670 5663 5657 5650 5643 5637 5630 5623 5616 5609 5603 5595 5587 5580 5573 5568 5564 5559 5554 5550 5546 5542 5539 5537 5533 5529 5524 5519
5730 5730 5728 5732 5733 5733 5730 5727 5721 5715 5709 5703 5696 5688 5681 5674 5667 5661 5655 5650 5643 5636 5629 5622 5615 5608 5602 5593 5586 5579 5573 5568 5563 5558 5553 5549 5545 5541 5537 5533 5531 5530 5526 5521
5727 5727 5727 5729 5729 5726 5723 5718 5711 5705 5701 5695 5689 5683 5676 5670 5665 5660 5655 5648 5640 5633 5627 5620 5613 5607 5600 5592 5584 5578 5572 5567 5563 5558 5553 5549 5545 5541 5538 5533 5530 5527 5525 5523
5719 5721 5721 5719 5718 5715 5711 5708 5703 5699 5694 5689 5682 5677 5673 5668 5662 5657 5651 5643 5636 5631 5625 5617 5611 5605 5598 5590 5582 5576 5570 5567 5563 5558 5553 5549 5546 5542 5538 5534 5531 5528 5525 5523
5707 5706 5706 5705 5705 5703 5702 5700 5697 5692 5687 5682 5678 5673 5666 5660 5655 5651 5646 5640 5634 5628 5622 5614 5608 5602 5595 5587 5580 5574 5569 5565 5562 5557 5553 5549 5545 5541 5537 5533 5530 5528 5525 5522
5697 5698 5698 5698 5697 5695 5693 5690 5687 5683 5679 5676 5671 5665 5659 5654 5651 5648 5643 5636 5629 5623 5618 5612 5606 5599 5592 5585 5579 5572 5567 5563 5559 5555 5552 5548 5545 5541 5537 5533 5530 5528 5526 5524
5685 5686 5686 5687 5686 5685 5682 5678 5676 5674 5671 5667 5663 5658 5655 5652 5648 5643 5637 5630 5624 5620 5616 5610 5603 5596 5589 5582 5577 5570 5566 5562 5558 5554 5550 5547 5544 5541 5537 5534 5531 5528 5526 5524
5671 5672 5673 5672 5673 5672 5670 5667 5666 5664 5663 5660 5657 5652 5649 5647 5642 5637 5630 5625 5623 5619 5614 5606 5599 5592 5585 5579 5574 5568 5563 5560 5556 5553 5549 5546 5543 5539 5536 5534 5531 5529 5526 5524
5656 5657 5658 5658 5658 5658 5658 5656 5655 5654 5654 5652 5649 5646 5643 5640 5636 5630 5624 5622 5621 5614 5607 5601 5594 5587 5581 5575 5571 5565 5561 5557 5554 5550 5547 5544 5541 5538 5535 5533 5531 5529 5526 5524
5641 5642 5643 5644 5644 5644 5645 5644 5643 5643 5642 5641 5640 5637 5634 5631 5628 5623 5620 5619 5616 5608 5601 5595 5589 5582 5577 5572 5566 5562 5558 5554 5551 5547 5544 5542 5539 5536 5534 5532 5529 5528 5526 5524
5626 5627 5628 5629 5629 5629 5631 5632 5632 5631 5630 5629 5628 5626 5625 5623 5620 5616 5614 5613 5607 5601 5595 5591 5584 5578 5572 5567 5562 5558 5554 5550 5547 5544 5541 5539 5536 5534 5532 5530 5528 5526 5525 5523
5613 5613 5614 5614 5615 5616 5617 5618 5618 5617 5617 5617 5617 5616 5614 5612 5611 5610 5607 5604 5599 5594 5589 5583 5577 5572 5566 5561 5557 5552 5548 5545 5543 5540 5538 5536 5533 5531 5529 5528 5526 5525 5523 5522
5598 5598 5598 5599 5600 5600 5601 5601 5602 5603 5604 5604 5605 5604 5603 5601 5600 5600 5597 5594 5590 5585 5580 5574 5569 5564 5560 5555 5551 5547 5543 5540 5538 5536 5534 5532 5530 5528 5527 5525 5523 5522 5521 5520
5581 5581 5581 5581 5582 5582 5583 5584 5585 5586 5587 5588 5590 5591 5590 5589 5588 5587 5585 5582 5578 5574 5570 5565 5560 5556 5552 5549 5545 5541 5538 5535 5533 5531 5529 5528 5526 5525 5523 5522 5520 5519 5518 5517
5564 5565 5565 5567 5568 5568 5568 5568 5569 5570 5571 5571 5572 5574 5575 5575 5574 5573 5571 5568 5565 5562 5558 5555 5551 5547 5544 5540 5537 5534 5532 5529 5527 5526 5524 5523 5521 5520 5519 5518 5517 5515 5514 5514